This is the latest recevied weather packets stored in our database for station/object OE3MHU-13. If no packets are shown the sender has not sent any weather packets the latest 1 day(s).
| Time | Temp. | Humidity | Pressure | Rain* | Wind** | Luminosity | Snow |
|---|---|---|---|---|---|---|---|
| 1778094257 | 20.56° C | 57% | 1005.6 hPa | 0 mm | - | - | - |
| 1778093033 | 21.11° C | 56% | 1005.4 hPa | 0 mm | - | - | - |
| 1778092421 | 21.11° C | 55% | 1005.2 hPa | 0 mm | - | - | - |
| 1778090891 | 21.67° C | 54% | 1005.2 hPa | 0 mm | - | - | - |
| 1778089364 | 22.22° C | 53% | 1005 hPa | 0 mm | - | - | - |
| 1778089055 | 22.22° C | 53% | 1005 hPa | 0 mm | - | - | - |
| 1778088749 | 22.78° C | 52% | 1005 hPa | 0 mm | - | - | - |
| 1778088443 | 22.78° C | 52% | 1005 hPa | 0 mm | - | - | - |
| 1778088137 | 22.78° C | 52% | 1005.1 hPa | 0 mm | - | - | - |
| 1778087831 | 22.78° C | 52% | 1005.1 hPa | 0 mm | - | - | - |
| 1778087219 | 22.78° C | 51% | 1005 hPa | 0 mm | - | - | - |
| 1778086913 | 23.33° C | 50% | 1005 hPa | 0.25 mm | - | - | - |
| 1778086607 | 23.33° C | 50% | 1005.2 hPa | 0.25 mm | - | - | - |
| 1778085689 | 23.33° C | 50% | 1005.1 hPa | 0.25 mm | - | - | - |
| 1778085078 | 23.33° C | 50% | 1005.3 hPa | 0.25 mm | - | - | - |
| 1778084159 | 23.33° C | 50% | 1005.4 hPa | 0.25 mm | - | - | - |
| 1778083547 | 23.33° C | 50% | 1005.6 hPa | 0.25 mm | - | - | - |
| 1778081099 | 24.44° C | 46% | 1005.7 hPa | 0 mm | - | - | - |
| 1778080181 | 24.44° C | 46% | 1005.6 hPa | 0 mm | - | - | - |
| 1778079569 | 24.44° C | 45% | 1005.5 hPa | 0 mm | - | - | - |
| 1778079263 | 24.44° C | 44% | 1005.6 hPa | 0 mm | - | - | - |
| 1778078056 | 25° C | 43% | 1005.7 hPa | 0 mm | - | - | - |
| 1778077453 | 25° C | 43% | 1005.6 hPa | 0 mm | - | - | - |
| 1778077154 | 25° C | 44% | 1005.8 hPa | 0 mm | - | - | - |
| 1778076252 | 25° C | 44% | 1006 hPa | 0 mm | - | - | - |
* Rain latest hour (hover to see other rain measurements)
** Current wind speed in m/s (hover to see current wind gust speed)